FW7176 Weather Reports


time (UTC)temp
C
wind
direction
speed
KPH
gust
KPH
rain 1hr
cm
rain 24hr
cm
rain mn
cm
humidity
%
barometer
mb
20260503224539 18 252 4.8 16.1 0.00 0.00 0.00 55 1015.8
20260503223041 19 279 3.2 22.5 0.00 0.00 0.00 55 1015.8
20260503221530 20 249 4.8 17.7 0.00 0.00 0.00 52 1015.9
20260503220038 19 277 1.6 12.9 0.00 0.00 0.00 56 1016.1
20260503214535 17 238 9.7 22.5 0.00 0.00 0.00 59 1016.1
20260503213035 19 338 1.6 17.7 0.00 0.00 0.00 56 1016.0
20260503211535 18 230 4.8 14.5 0.00 0.00 0.00 56 1015.9
20260503210044 17 211 8.0 20.9 0.00 0.00 0.00 58 1016.0
20260503204550 18 219 3.2 19.3 0.00 0.00 0.00 58 1016.2
20260503203037 17 261 8.0 20.9 0.00 0.00 0.00 58 1016.4
20260503201536 19 284 4.8 16.1 0.00 0.00 0.00 52 1016.5
20260503200045 17 234 1.6 19.3 0.00 0.00 0.00 58 1016.3
20260503194536 19 262 3.2 20.9 0.00 0.00 0.00 54 1016.4
20260503193035 18 257 1.6 16.1 0.00 0.00 0.00 55 1016.4
20260503191535 17 257 6.4 14.5 0.00 0.00 0.00 56 1016.4
20260503190043 17 32 0.0 14.5 0.00 0.00 0.00 59 1016.5
20260503184535 16 243 3.2 16.1 0.00 0.00 0.00 61 1016.6
20260503183034 16 243 3.2 14.5 0.00 0.00 0.00 63 1016.7
20260503181539 16 0 1.6 12.9 0.00 0.00 0.00 65 1016.8
20260503180035 15 220 1.6 12.9 0.00 0.00 0.00 69 1016.8
20260503174535 14 231 4.8 14.5 0.00 0.00 0.00 71 1016.9
20260503173049 14 241 0.0 4.8 0.00 0.00 0.00 74 1017.0
20260503171538 14 230 1.6 12.9 0.00 0.00 0.00 76 1017.0
20260503081550 12 0 0.0 0.0 0.00 0.00 0.00 87 1015.4
20260503071539 12 71 0.0 4.8 0.00 0.00 0.00 88 1015.3
20260503054537 11 0 0.0 1.6 0.00 0.00 0.00 90 1014.8
20260503053036 11 0 0.0 0.0 0.00 0.00 0.00 89 1014.8
20260503051537 11 0 0.0 0.0 0.00 0.00 0.00 89 1014.8
20260503050035 11 0 0.0 0.0 0.00 0.00 0.00 88 1014.5
20260503044540 11 0 0.0 0.0 0.00 0.00 0.00 87 1014.3
20260503043032 11 0 0.0 1.6 0.00 0.00 0.00 88 1014.2
20260503041530 12 0 0.0 3.2 0.00 0.00 0.00 87 1014.3
20260503040037 12 241 0.0 8.0 0.00 0.00 0.00 87 1014.2
20260503034535 12 241 0.0 1.6 0.00 0.00 0.00 85 1014.2
20260503033034 12 0 0.0 4.8 0.00 0.00 0.00 85 1014.1
20260503031530 12 240 1.6 8.0 0.00 0.00 0.00 84 1014.2
20260503030033 13 0 0.0 8.0 0.00 0.00 0.00 82 1014.0
20260503024529 13 0 0.0 11.3 0.00 0.00 0.00 81 1013.8
20260503023038 13 258 0.0 8.0 0.00 0.00 0.00 79 1013.5
20260503021540 14 238 1.6 9.7 0.00 0.00 0.00 77 1013.6
20260503020030 15 215 1.6 9.7 0.00 0.00 0.00 75 1013.6
20260503014537 15 0 0.0 14.5 0.00 0.00 0.00 74 1013.7
20260503013036 15 275 0.0 12.9 0.00 0.00 0.00 74 1013.7
20260503011534 16 263 6.4 14.5 0.00 0.00 0.00 73 1013.9
20260503010038 16 242 1.6 16.1 0.00 0.00 0.00 72 1013.8
20260503004530 16 220 3.2 12.9 0.00 0.00 0.00 72 1014.0
20260503003030 17 284 1.6 20.9 0.00 0.00 0.00 71 1013.9
20260503001537 17 242 1.6 16.1 0.00 0.00 0.00 70 1013.8
20260503000045 17 269 3.2 19.3 0.00 0.00 0.00 71 1013.8
20260502234532 17 207 6.4 16.1 0.00 0.00 0.00 70 1013.9
20260502233032 18 269 3.2 14.5 0.00 0.00 0.00 66 1013.9
20260502231900 17 247 4.8 16.1 0.00 0.00 0.00 68 1014.1
20260502230031 18 256 3.2 16.1 0.00 0.00 0.00 68 1014.2